星链-37026(STARLINK-37026)

导读

STARLINK-37026(NORAD编号68075)是SpaceX星链(Starlink)星座中的一颗第二代互联网卫星,属于近地轨道低轨宽带通信卫星,主要为全球提供高速互联网接入服务。星链卫星普遍搭载激光通信链路,可实现卫星间高速互联,减少对地面站依赖,提升全球网络覆盖能力。 2026年SpaceX为改善太空安全,计划将4400颗星链卫星轨道高度从550公里降至480公里,STARLINK-37026大概率在此次降轨计划中,降轨后可在故障时更快再入大气层,降低碰撞风险与太空碎片威胁。

Basic Information
目录编号:
68075
目录名称:
STARLINK-37026
国际标识:
2026-042G
轨道中心:
EARTH
卫星名称:
星链-37026
卫星全名:
星链-37026(STARLINK-37026)
卫星状态:
在轨 (已飞行184 天)
发射日期:
2026-03-04 UTC
国别 :
美国 (US)
星等 :
--
Orbit Information
数据来源 国际轨道数据
星历时间: 2026-09-03T19:34:50+0800
15小时前
查看轨道信息
半长轴: 6840.821km
偏心率: 0.0001297
轨道倾角: 53.157°
近地点辐角 86.757°
升交点赤经 69.524°
平近点角 273.358°
近地点: 461.796km
远地点: 463.572km
周期: 93.847分钟
每日圈数: 15.344067
Detailed Information
固有亮度:
5
最大亮度:
2.5
卫星平台:
Starlink V1.0
覆盖范围:
全球
运营商:
太空探索技术公司
运营商所在国:
美国
制造商(研发单位):
太空探索技术公司
制造商所在国:
美国
使用方式:
暂无
Satellite Introduction
Starlink 计划是 SpaceX 推出的全球卫星互联网项目,通过发射低轨道卫星,为全球尤其是偏远地区提供高速、低延迟的互联网服务。自 2019 年起,Starlink 已部署数千颗卫星,旨在缩小全球数字鸿沟,推动互联网普及。该项目还为军事、航空等行业提供通信支持,带来广泛经济效益。
2D Orbit Map
3D Orbit Map
Orbit Altitude Analysis Chart
Orbit Inclination Analysis Chart
Orbit Comprehensive Analysis Chart
View Comprehensive Chart
Conjunction Data List
Event ID Objects TCA Miss Dist (km) Collision Risk Probability Collision Risk Index (CRI) Action
CDM_260905-025606-609106-807521
2026-09-05T
02:56:52+0000
0.330 km
远距离
3.177307E-4 高风险 0.85
CDM_260905-012306-609106-807521
2026-09-05T
01:23:05+0000
0.421 km
远距离
1.983657E-4 高风险 0.81
CDM_260904-181406-027106-807521
2026-09-04T
18:14:30+0000
0.662 km
远距离
8.168951E-5 中风险 0.73
CDM_260905-043006-609106-807521
2026-09-05T
04:30:39+0000
1.061 km
极远距离
1.329662E-5 中风险 0.57
CDM_260904-234906-609106-807521
2026-09-04T
23:49:17+0000
1.175 km
极远距离
9.340062E-6 低风险 0.54
CDM_260905-060406-609106-807521
2026-09-05T
06:04:27+0000
1.784 km
极远距离
2.46045E-6 低风险 0.43
CDM_260904-221506-609106-807521
2026-09-04T
22:15:30+0000
1.941 km
极远距离
1.9652E-6 低风险 0.41
CDM_260830-170405-479906-807521
2026-08-30T
17:04:03+0000
2.498 km
极远距离
1.489599E-6 低风险 0.38
CDM_260905-011606-027106-807521
2026-09-05T
01:16:36+0000
2.577 km
极远距离
1.384566E-6 低风险 0.38
CDM_260905-073806-609106-807521
2026-09-05T
07:38:14+0000
2.495 km
极远距离
1.154923E-6 低风险 0.36